This is the latest recevied weather packets stored in our database for station/object K6GMW. If no packets are shown the sender has not sent any weather packets the latest 1 day(s).
| Time | Temp. | Humidity | Pressure | Rain* | Wind** | Luminosity | Snow |
|---|---|---|---|---|---|---|---|
| 1778021170 | 30° C | 65% | 1006.1 hPa | 0 mm | 1.79 m/s, 194° | 372 W/m² | - |
| 1778020868 | 29.44° C | 65% | 1005.9 hPa | 0 mm | 2.68 m/s, 213° | 411 W/m² | - |
| 1778020565 | 29.44° C | 65% | 1006.1 hPa | 0 mm | 2.68 m/s, 173° | 372 W/m² | - |
| 1778020261 | 28.89° C | 66% | 1006.1 hPa | 0 mm | 3.13 m/s, 229° | 352 W/m² | - |
| 1778019957 | 28.33° C | 67% | 1005.9 hPa | 0 mm | 3.58 m/s, 243° | 418 W/m² | - |
| 1778019654 | 28.33° C | 66% | 1005.8 hPa | 0 mm | 2.68 m/s, 200° | 174 W/m² | - |
| 1778019351 | 28.89° C | 66% | 1005.8 hPa | 0 mm | 2.24 m/s, 190° | 394 W/m² | - |
| 1778019047 | 28.33° C | 67% | 1005.9 hPa | 0 mm | 2.68 m/s, 217° | 490 W/m² | - |
| 1778018744 | 28.33° C | 66% | 1006.1 hPa | 0 mm | 4.47 m/s, 179° | 165 W/m² | - |
| 1778018442 | 28.89° C | 66% | 1005.9 hPa | 0 mm | 2.68 m/s, 178° | 352 W/m² | - |
| 1778018140 | 29.44° C | 66% | 1006.1 hPa | 0 mm | 3.58 m/s, 171° | 568 W/m² | - |
| 1778017838 | 29.44° C | 65% | 1006.1 hPa | 0 mm | 4.92 m/s, 192° | 688 W/m² | - |
| 1778017536 | 29.44° C | 65% | 1006.1 hPa | 0 mm | 4.92 m/s, 185° | 631 W/m² | - |
| 1778017232 | 29.44° C | 65% | 1006.3 hPa | 0 mm | 3.13 m/s, 196° | 666 W/m² | - |
| 1778016930 | 28.89° C | 67% | 1006.2 hPa | 0 mm | 1.34 m/s, 185° | 651 W/m² | - |
| 1778016626 | 28.33° C | 69% | 1006.3 hPa | 0 mm | 2.68 m/s, 153° | 728 W/m² | - |
| 1778016323 | 28.33° C | 69% | 1006.3 hPa | 0 mm | 2.24 m/s, 198° | 739 W/m² | - |
| 1778016020 | 28.33° C | 68% | 1006.5 hPa | 0 mm | 1.34 m/s, 219° | 276 W/m² | - |
| 1778015717 | 28.89° C | 66% | 1006.4 hPa | 0 mm | 3.58 m/s, 190° | 255 W/m² | - |
| 1778015414 | 28.33° C | 68% | 1006.4 hPa | 0 mm | 2.68 m/s, 182° | 760 W/m² | - |
| 1778015110 | 28.33° C | 67% | 1006.5 hPa | 0 mm | 4.92 m/s, 211° | 729 W/m² | - |
| 1778014807 | 28.33° C | 67% | 1006.6 hPa | 0 mm | 3.58 m/s, 176° | 667 W/m² | - |
| 1778014506 | 28.33° C | 67% | 1006.5 hPa | 0 mm | 3.13 m/s, 164° | 318 W/m² | - |
| 1778014202 | 28.33° C | 68% | 1006.7 hPa | 0 mm | 3.58 m/s, 178° | 340 W/m² | - |
| 1778013900 | 27.78° C | 68% | 1006.7 hPa | 0 mm | 2.68 m/s, 214° | 624 W/m² | - |
* Rain latest hour (hover to see other rain measurements)
** Current wind speed in m/s (hover to see current wind gust speed)